Time,TemperatureF,DewpointF,PressureIn,WindDirection,WindDirectionDegrees,WindSpeedMPH,WindSpeedGustMPH,Humidity,HourlyPrecipIn,Conditions,Clouds,dailyrainin,SoftwareType,DateUTC
2013-06-11 00:02:00,66.0,-99.9,-100.00,SE,144,0.0,-999.0,-999,0.00,,,0.01,,2013-06-11 05:02:00,
2013-06-11 00:12:00,66.0,-99.9,-100.00,SE,144,0.0,-999.0,-999,0.00,,,0.01,,2013-06-11 05:12:00,
2013-06-11 00:22:00,66.0,-99.9,-100.00,SE,144,0.0,-999.0,-999,0.00,,,0.01,,2013-06-11 05:22:00,
2013-06-11 00:32:00,65.0,-99.9,-100.00,South,170,0.0,-999.0,-999,0.00,,,0.01,,2013-06-11 05:32:00,
2013-06-11 00:42:00,65.0,-99.9,-100.00,South,170,0.0,-999.0,-999,0.00,,,0.01,,2013-06-11 05:42:00,
2013-06-11 00:52:00,65.0,-99.9,-100.00,SSE,157,0.0,-999.0,-999,0.00,,,0.01,,2013-06-11 05:52:00,
2013-06-11 01:02:00,65.0,-99.9,-100.00,SSE,157,0.0,-999.0,-999,0.00,,,0.01,,2013-06-11 06:02:00,
2013-06-11 01:12:00,65.0,-99.9,-100.00,SSE,157,0.0,-999.0,-999,0.00,,,0.01,,2013-06-11 06:12:00,
2013-06-11 01:22:00,65.0,-99.9,-100.00,SSE,157,0.0,-999.0,-999,0.00,,,0.01,,2013-06-11 06:22:00,
2013-06-11 01:32:00,64.0,-99.9,-100.00,SE,136,1.0,-999.0,-999,0.00,,,0.01,,2013-06-11 06:32:00,
2013-06-11 01:42:00,64.0,-99.9,-100.00,SE,136,1.0,-999.0,-999,0.00,,,0.01,,2013-06-11 06:42:00,
2013-06-11 01:52:00,64.0,-99.9,-100.00,SE,135,0.0,-999.0,-999,0.00,,,0.01,,2013-06-11 06:52:00,
2013-06-11 02:00:00,63.0,-99.9,-100.00,SSE,154,0.0,-999.0,-999,0.00,,,0.01,,2013-06-11 07:00:00,
2013-06-11 02:02:00,64.0,-99.9,-100.00,SE,135,0.0,-999.0,-999,0.00,,,0.01,,2013-06-11 07:02:00,
2013-06-11 02:13:00,64.0,-99.9,-100.00,SE,135,0.0,-999.0,-999,0.00,,,0.01,,2013-06-11 07:13:00,
2013-06-11 02:22:00,64.0,-99.9,-100.00,SE,135,0.0,-999.0,-999,0.00,,,0.01,,2013-06-11 07:22:00,
2013-06-11 02:32:00,63.0,-99.9,-100.00,SSE,154,0.0,-999.0,-999,0.00,,,0.01,,2013-06-11 07:32:00,
2013-06-11 02:42:00,63.0,-99.9,-100.00,SSE,154,0.0,-999.0,-999,0.00,,,0.01,,2013-06-11 07:42:00,
2013-06-11 02:52:00,63.0,-99.9,-100.00,SSE,154,0.0,-999.0,-999,0.00,,,0.01,,2013-06-11 07:52:00,
2013-06-11 03:32:00,63.0,-99.9,-100.00,SE,145,0.0,-999.0,-999,0.00,,,0.01,,2013-06-11 08:32:00,
2013-06-11 03:42:00,63.0,-99.9,-100.00,SE,145,0.0,-999.0,-999,0.00,,,0.01,,2013-06-11 08:42:00,
2013-06-11 03:52:00,63.0,-99.9,-100.00,ESE,119,4.0,-999.0,-999,0.00,,,0.01,,2013-06-11 08:52:00,
2013-06-11 04:02:00,63.0,-99.9,-100.00,ESE,119,4.0,-999.0,-999,0.00,,,0.01,,2013-06-11 09:02:00,
2013-06-11 04:12:00,63.0,-99.9,-100.00,ESE,119,4.0,-999.0,-999,0.00,,,0.01,,2013-06-11 09:12:00,
2013-06-11 04:22:00,63.0,-99.9,-100.00,ESE,119,4.0,-999.0,-999,0.00,,,0.01,,2013-06-11 09:22:00,
2013-06-11 04:33:00,63.0,-99.9,-100.00,SSW,200,2.0,-999.0,-999,0.00,,,0.01,,2013-06-11 09:33:00,
2013-06-11 04:43:00,63.0,-99.9,-100.00,SSW,200,2.0,-999.0,-999,0.00,,,0.01,,2013-06-11 09:43:00,
2013-06-11 04:53:00,62.0,-99.9,-100.00,SE,132,1.0,-999.0,-999,0.00,,,0.01,,2013-06-11 09:53:00,
2013-06-11 05:03:00,62.0,-99.9,-100.00,SE,132,1.0,-999.0,-999,0.00,,,0.01,,2013-06-11 10:03:00,
2013-06-11 05:12:00,62.0,-99.9,-100.00,SE,132,1.0,-999.0,-999,0.00,,,0.01,,2013-06-11 10:12:00,
2013-06-11 05:23:00,62.0,-99.9,-100.00,SE,132,1.0,-999.0,-999,0.00,,,0.01,,2013-06-11 10:23:00,
2013-06-11 05:30:00,62.0,-99.9,-100.00,SE,138,1.0,-999.0,-999,0.00,,,0.01,,2013-06-11 10:30:00,
2013-06-11 05:33:00,62.0,-99.9,-100.00,SE,132,2.0,-999.0,-999,0.00,,,0.01,,2013-06-11 10:33:00,
2013-06-11 05:43:00,62.0,-99.9,-100.00,SE,132,2.0,-999.0,-999,0.00,,,0.01,,2013-06-11 10:43:00,
2013-06-11 05:52:00,62.0,-99.9,-100.00,SE,132,2.0,-999.0,-999,0.00,,,0.01,,2013-06-11 10:52:00,
2013-06-11 06:02:00,62.0,-99.9,-100.00,SE,138,1.0,-999.0,-999,0.00,,,0.01,,2013-06-11 11:02:00,
2013-06-11 06:12:00,62.0,-99.9,-100.00,SE,138,1.0,-999.0,-999,0.00,,,0.01,,2013-06-11 11:12:00,
2013-06-11 06:22:00,62.0,-99.9,-100.00,SE,138,1.0,-999.0,-999,0.00,,,0.01,,2013-06-11 11:22:00,
2013-06-11 06:52:00,65.0,-99.9,-100.00,SSE,157,1.0,-999.0,-999,0.00,,,0.01,,2013-06-11 11:52:00,
2013-06-11 07:02:00,65.0,-99.9,-100.00,SSE,157,1.0,-999.0,-999,0.00,,,0.01,,2013-06-11 12:02:00,
2013-06-11 07:12:00,65.0,-99.9,-100.00,SSE,157,1.0,-999.0,-999,0.00,,,0.01,,2013-06-11 12:12:00,
2013-06-11 07:22:00,65.0,-99.9,-100.00,SSE,157,1.0,-999.0,-999,0.00,,,0.01,,2013-06-11 12:22:00,
2013-06-11 07:32:00,67.0,-99.9,-100.00,SE,144,2.0,-999.0,-999,0.00,,,0.01,,2013-06-11 12:32:00,
2013-06-11 07:42:00,67.0,-99.9,-100.00,SE,144,2.0,-999.0,-999,0.00,,,0.01,,2013-06-11 12:42:00,
2013-06-11 07:52:00,71.0,-99.9,-100.00,SSE,163,2.0,-999.0,-999,0.00,,,0.01,,2013-06-11 12:52:00,
2013-06-11 08:02:00,71.0,-99.9,-100.00,SSE,163,2.0,-999.0,-999,0.00,,,0.01,,2013-06-11 13:02:00,
2013-06-11 08:12:00,71.0,-99.9,-100.00,SSE,163,2.0,-999.0,-999,0.00,,,0.01,,2013-06-11 13:12:00,
2013-06-11 08:22:00,71.0,-99.9,-100.00,SSE,163,2.0,-999.0,-999,0.00,,,0.01,,2013-06-11 13:22:00,
2013-06-11 08:32:00,69.0,-99.9,-100.00,SE,131,4.0,-999.0,-999,0.00,,,0.01,,2013-06-11 13:32:00,
2013-06-11 08:42:00,69.0,-99.9,-100.00,SE,131,4.0,-999.0,-999,0.00,,,0.01,,2013-06-11 13:42:00,
2013-06-11 08:52:00,69.0,-99.9,-100.00,SE,131,4.0,-999.0,-999,0.00,,,0.01,,2013-06-11 13:52:00,
2013-06-11 09:02:00,72.0,-99.9,-100.00,SSE,161,3.0,-999.0,-999,0.00,,,0.01,,2013-06-11 14:02:00,
2013-06-11 09:12:00,72.0,-99.9,-100.00,SSE,161,3.0,-999.0,-999,0.00,,,0.01,,2013-06-11 14:12:00,
2013-06-11 09:22:00,72.0,-99.9,-100.00,SSE,161,3.0,-999.0,-999,0.00,,,0.01,,2013-06-11 14:22:00,
2013-06-11 09:32:00,75.0,-99.9,-100.00,SSE,163,3.0,-999.0,-999,0.00,,,0.01,,2013-06-11 14:32:00,
2013-06-11 09:42:00,75.0,-99.9,-100.00,SSE,163,3.0,-999.0,-999,0.00,,,0.01,,2013-06-11 14:42:00,
2013-06-11 09:53:00,75.0,-99.9,-100.00,SSE,163,3.0,-999.0,-999,0.00,,,0.01,,2013-06-11 14:53:00,
2013-06-11 10:02:00,76.0,-99.9,-100.00,SE,138,4.0,-999.0,-999,0.00,,,0.01,,2013-06-11 15:02:00,
2013-06-11 10:12:00,76.0,-99.9,-100.00,SE,138,4.0,-999.0,-999,0.00,,,0.01,,2013-06-11 15:12:00,
2013-06-11 10:22:00,76.0,-99.9,-100.00,SE,138,4.0,-999.0,-999,0.00,,,0.01,,2013-06-11 15:22:00,
2013-06-11 10:33:00,79.0,-99.9,-100.00,South,176,2.0,-999.0,-999,0.00,,,0.01,,2013-06-11 15:33:00,
2013-06-11 10:43:00,79.0,-99.9,-100.00,South,176,2.0,-999.0,-999,0.00,,,0.01,,2013-06-11 15:43:00,
2013-06-11 10:53:00,81.0,-99.9,-100.00,SE,143,3.0,-999.0,-999,0.00,,,0.01,,2013-06-11 15:53:00,
2013-06-11 11:03:00,81.0,-99.9,-100.00,SE,143,3.0,-999.0,-999,0.00,,,0.01,,2013-06-11 16:03:00,
2013-06-11 11:13:00,81.0,-99.9,-100.00,SE,143,3.0,-999.0,-999,0.00,,,0.01,,2013-06-11 16:13:00,
2013-06-11 11:23:00,81.0,-99.9,-100.00,SE,143,3.0,-999.0,-999,0.00,,,0.01,,2013-06-11 16:23:00,
2013-06-11 11:33:00,85.0,-99.9,-100.00,SSE,155,2.0,3.0,-999,0.00,,,0.01,,2013-06-11 16:33:00,
2013-06-11 11:42:00,85.0,-99.9,-100.00,SSE,155,2.0,3.0,-999,0.00,,,0.01,,2013-06-11 16:42:00,
2013-06-11 11:53:00,85.0,-99.9,-100.00,SSE,155,2.0,3.0,-999,0.00,,,0.01,,2013-06-11 16:53:00,
2013-06-11 12:02:00,86.0,-99.9,-100.00,SSW,212,5.0,14.0,-999,0.00,,,0.01,,2013-06-11 17:02:00,
2013-06-11 12:12:00,86.0,-99.9,-100.00,SSW,212,5.0,14.0,-999,0.00,,,0.01,,2013-06-11 17:12:00,
2013-06-11 12:22:00,86.0,-99.9,-100.00,SSW,212,5.0,14.0,-999,0.00,,,0.01,,2013-06-11 17:22:00,
2013-06-11 12:32:00,87.0,-99.9,-100.00,SW,223,7.0,10.0,-999,0.00,,,0.00,,2013-06-11 17:32:00,
2013-06-11 12:43:00,87.0,-99.9,-100.00,SW,223,7.0,10.0,-999,0.00,,,0.00,,2013-06-11 17:43:00,
2013-06-11 12:53:00,87.0,-99.9,-100.00,SW,231,6.0,8.0,-999,0.00,,,0.00,,2013-06-11 17:53:00,
2013-06-11 13:02:00,87.0,-99.9,-100.00,SW,231,6.0,8.0,-999,0.00,,,0.00,,2013-06-11 18:02:00,
2013-06-11 13:12:00,87.0,-99.9,-100.00,SW,231,6.0,8.0,-999,0.00,,,0.00,,2013-06-11 18:12:00,
2013-06-11 13:22:00,87.0,-99.9,-100.00,SW,231,6.0,8.0,-999,0.00,,,0.00,,2013-06-11 18:22:00,
2013-06-11 13:33:00,89.0,-99.9,-100.00,SW,224,7.0,11.0,-999,0.00,,,0.00,,2013-06-11 18:33:00,
2013-06-11 13:43:00,89.0,-99.9,-100.00,SW,224,7.0,11.0,-999,0.00,,,0.00,,2013-06-11 18:43:00,
2013-06-11 13:53:00,91.0,-99.9,-100.00,South,191,3.0,6.0,-999,0.00,,,0.00,,2013-06-11 18:53:00,
2013-06-11 14:03:00,91.0,-99.9,-100.00,South,191,3.0,6.0,-999,0.00,,,0.00,,2013-06-11 19:03:00,
2013-06-11 14:13:00,91.0,-99.9,-100.00,South,191,3.0,6.0,-999,0.00,,,0.00,,2013-06-11 19:13:00,
2013-06-11 14:22:00,91.0,-99.9,-100.00,South,191,3.0,6.0,-999,0.00,,,0.00,,2013-06-11 19:22:00,
2013-06-11 14:33:00,89.0,-99.9,-100.00,SW,215,1.0,3.0,-999,0.00,,,0.00,,2013-06-11 19:33:00,
2013-06-11 14:42:00,89.0,-99.9,-100.00,SW,215,1.0,3.0,-999,0.00,,,0.00,,2013-06-11 19:42:00,
2013-06-11 14:53:00,89.0,-99.9,-100.00,SW,215,1.0,3.0,-999,0.00,,,0.00,,2013-06-11 19:53:00,
2013-06-11 15:03:00,93.0,-99.9,-100.00,South,190,3.0,5.0,-999,0.00,,,0.00,,2013-06-11 20:03:00,
2013-06-11 15:12:00,93.0,-99.9,-100.00,South,190,3.0,5.0,-999,0.00,,,0.00,,2013-06-11 20:12:00,
2013-06-11 15:22:00,93.0,-99.9,-100.00,South,190,3.0,5.0,-999,0.00,,,0.00,,2013-06-11 20:22:00,
2013-06-11 15:32:00,92.0,-99.9,-100.00,SW,222,5.0,8.0,-999,0.00,,,0.00,,2013-06-11 20:32:00,
2013-06-11 15:42:00,92.0,-99.9,-100.00,SW,222,5.0,8.0,-999,0.00,,,0.00,,2013-06-11 20:42:00,
2013-06-11 15:52:00,92.0,-99.9,-100.00,SW,222,5.0,8.0,-999,0.00,,,0.00,,2013-06-11 20:52:00,
2013-06-11 16:02:00,91.0,-99.9,-100.00,SW,215,4.0,8.0,-999,0.00,,,0.00,,2013-06-11 21:02:00,
2013-06-11 16:12:00,91.0,-99.9,-100.00,SW,215,4.0,8.0,-999,0.00,,,0.00,,2013-06-11 21:12:00,
2013-06-11 16:22:00,91.0,-99.9,-100.00,SW,215,4.0,8.0,-999,0.00,,,0.00,,2013-06-11 21:22:00,
2013-06-11 16:33:00,90.0,-99.9,-100.00,SW,214,3.0,9.0,-999,0.00,,,0.00,,2013-06-11 21:33:00,
2013-06-11 16:42:00,90.0,-99.9,-100.00,SW,214,3.0,9.0,-999,0.00,,,0.00,,2013-06-11 21:42:00,
2013-06-11 16:53:00,90.0,-99.9,-100.00,SW,214,3.0,9.0,-999,0.00,,,0.00,,2013-06-11 21:53:00,
2013-06-11 17:03:00,92.0,-99.9,-100.00,SSW,198,2.0,4.0,-999,0.00,,,0.00,,2013-06-11 22:03:00,
2013-06-11 17:13:00,92.0,-99.9,-100.00,SSW,198,2.0,4.0,-999,0.00,,,0.00,,2013-06-11 22:13:00,
2013-06-11 17:22:00,92.0,-99.9,-100.00,SSW,198,2.0,4.0,-999,0.00,,,0.00,,2013-06-11 22:22:00,
2013-06-11 17:33:00,89.0,-99.9,-100.00,SW,233,3.0,4.0,-999,0.00,,,0.00,,2013-06-11 22:33:00,
2013-06-11 17:42:00,89.0,-99.9,-100.00,SW,233,3.0,4.0,-999,0.00,,,0.00,,2013-06-11 22:42:00,
2013-06-11 17:52:00,89.0,-99.9,-100.00,SW,233,3.0,4.0,-999,0.00,,,0.00,,2013-06-11 22:52:00,
2013-06-11 18:03:00,91.0,-99.9,-100.00,SSW,211,2.0,4.0,-999,0.00,,,0.00,,2013-06-11 23:03:00,
2013-06-11 18:12:00,91.0,-99.9,-100.00,SSW,211,2.0,4.0,-999,0.00,,,0.00,,2013-06-11 23:12:00,
2013-06-11 18:22:00,91.0,-99.9,-100.00,SSW,211,2.0,4.0,-999,0.00,,,0.00,,2013-06-11 23:22:00,
2013-06-11 18:30:00,85.0,-99.9,-100.00,SW,222,1.0,2.0,-999,0.00,,,0.00,,2013-06-11 23:30:00,
2013-06-11 18:32:00,89.0,-99.9,-100.00,SSW,212,3.0,4.0,-999,0.00,,,0.00,,2013-06-11 23:32:00,
2013-06-11 18:43:00,89.0,-99.9,-100.00,SSW,212,3.0,4.0,-999,0.00,,,0.00,,2013-06-11 23:43:00,
2013-06-11 18:52:00,89.0,-99.9,-100.00,SSW,212,3.0,4.0,-999,0.00,,,0.00,,2013-06-11 23:52:00,
2013-06-11 19:02:00,85.0,-99.9,-100.00,SW,222,1.0,2.0,-999,0.00,,,0.00,,2013-06-12 00:02:00,
2013-06-11 19:12:00,85.0,-99.9,-100.00,SW,222,1.0,2.0,-999,0.00,,,0.00,,2013-06-12 00:12:00,
2013-06-11 19:22:00,85.0,-99.9,-100.00,SW,222,1.0,2.0,-999,0.00,,,0.00,,2013-06-12 00:22:00,
2013-06-11 20:02:00,83.0,-99.9,-100.00,SSE,150,0.0,1.0,-999,0.00,,,0.00,,2013-06-12 01:02:00,
2013-06-11 20:12:00,83.0,-99.9,-100.00,SSE,150,0.0,1.0,-999,0.00,,,0.00,,2013-06-12 01:12:00,
2013-06-11 20:22:00,83.0,-99.9,-100.00,SSE,150,0.0,1.0,-999,0.00,,,0.00,,2013-06-12 01:22:00,
2013-06-11 20:32:00,82.0,-99.9,-100.00,SSE,161,0.0,1.0,-999,0.00,,,0.00,,2013-06-12 01:32:00,
2013-06-11 20:42:00,82.0,-99.9,-100.00,SSE,161,0.0,1.0,-999,0.00,,,0.00,,2013-06-12 01:42:00,
2013-06-11 20:52:00,82.0,-99.9,-100.00,SSE,161,0.0,1.0,-999,0.00,,,0.00,,2013-06-12 01:52:00,
2013-06-11 21:02:00,81.0,-99.9,-100.00,SE,124,0.0,3.0,-999,0.00,,,0.00,,2013-06-12 02:02:00,
2013-06-11 21:12:00,81.0,-99.9,-100.00,SE,124,0.0,3.0,-999,0.00,,,0.00,,2013-06-12 02:12:00,
2013-06-11 21:22:00,81.0,-99.9,-100.00,SE,124,0.0,3.0,-999,0.00,,,0.00,,2013-06-12 02:22:00,
2013-06-11 21:32:00,81.0,-99.9,-100.00,SE,143,2.0,3.0,-999,0.00,,,0.00,,2013-06-12 02:32:00,
2013-06-11 21:42:00,81.0,-99.9,-100.00,SE,143,2.0,3.0,-999,0.00,,,0.00,,2013-06-12 02:42:00,
2013-06-11 21:52:00,81.0,-99.9,-100.00,SE,143,2.0,3.0,-999,0.00,,,0.00,,2013-06-12 02:52:00,
2013-06-11 22:02:00,79.0,-99.9,-100.00,NE,51,1.0,3.0,-999,0.00,,,0.00,,2013-06-12 03:02:00,
2013-06-11 22:12:00,79.0,-99.9,-100.00,NE,51,1.0,3.0,-999,0.00,,,0.00,,2013-06-12 03:12:00,
2013-06-11 22:22:00,79.0,-99.9,-100.00,NE,51,1.0,3.0,-999,0.00,,,0.00,,2013-06-12 03:22:00,
2013-06-11 22:33:00,76.0,-99.9,-100.00,ENE,68,1.0,2.0,-999,0.00,,,0.00,,2013-06-12 03:33:00,
2013-06-11 22:43:00,76.0,-99.9,-100.00,ENE,68,1.0,2.0,-999,0.00,,,0.00,,2013-06-12 03:43:00,
2013-06-11 22:54:00,76.0,-99.9,-100.00,ENE,68,1.0,2.0,-999,0.00,,,0.00,,2013-06-12 03:54:00,
2013-06-11 23:03:00,76.0,-99.9,-100.00,SE,130,0.0,1.0,-999,0.00,,,0.00,,2013-06-12 04:03:00,
2013-06-11 23:13:00,76.0,-99.9,-100.00,SE,130,0.0,1.0,-999,0.00,,,0.00,,2013-06-12 04:13:00,
2013-06-11 23:23:00,76.0,-99.9,-100.00,SE,130,0.0,1.0,-999,0.00,,,0.00,,2013-06-12 04:23:00,
2013-06-11 23:34:00,76.0,-99.9,-100.00,South,174,0.0,0.0,-999,0.00,,,0.00,,2013-06-12 04:34:00,
2013-06-11 23:43:00,76.0,-99.9,-100.00,South,174,0.0,0.0,-999,0.00,,,0.00,,2013-06-12 04:43:00,
2013-06-11 23:53:00,76.0,-99.9,-100.00,South,174,0.0,0.0,-999,0.00,,,0.00,,2013-06-12 04:53:00,